{"data":{"norad_id":59340,"epoch":"2026-05-24T23:31:34.101120Z","epoch_age_seconds":66786,"freshness":"FRESH","line1":"1 59340U 24057W   26144.98025580  .00000305  00000+0  20608-4 0  9990","line2":"2 59340  43.0007 131.2077 0001043 269.1446  90.9286 15.27572987121335","mean_motion":15.27572987,"eccentricity":0.0001043,"inclination_deg":43.0007,"raan_deg":131.2077,"arg_perigee_deg":269.1446,"mean_anomaly_deg":90.9286,"bstar":2.0608e-5,"rev_number":12133,"period_min":94.26718148689,"perigee_km":482.35447166484,"apogee_km":483.78571946497,"semimajor_km":6861.2070955649,"source":"CELESTRAK","updated_at":"2026-05-25T13:38:18.907086Z"}}